TimeAKDT,TemperatureF,Dew PointF,Humidity,Sea Level PressureIn,VisibilityMPH,Wind Direction,Wind SpeedMPH,Gust SpeedMPH,PrecipitationIn,Events,Conditions,WindDirDegrees,DateUTC
12:53 AM,-15.0,-20.0,78,30.18,10.0,Calm,Calm,-,N/A,,Clear,0,2012-11-02 08:53:00
1:53 AM,-16.1,-20.9,79,30.17,10.0,Calm,Calm,-,N/A,,Clear,0,2012-11-02 09:53:00
2:10 AM,-16.6,-22.0,76,30.09,10.0,Calm,Calm,-,N/A,,Partly Cloudy,0,2012-11-02 10:10:00
2:31 AM,-16.6,-22.0,76,30.08,10.0,Calm,Calm,-,N/A,,Mostly Cloudy,0,2012-11-02 10:31:00
2:53 AM,-16.1,-20.9,79,30.15,10.0,Calm,Calm,-,N/A,,Overcast,0,2012-11-02 10:53:00
3:12 AM,-16.6,-22.0,76,30.06,10.0,Calm,Calm,-,N/A,,Scattered Clouds,0,2012-11-02 11:12:00
3:53 AM,-18.0,-23.1,78,30.14,10.0,Calm,Calm,-,N/A,,Partly Cloudy,0,2012-11-02 11:53:00
4:53 AM,-18.0,-24.0,74,30.12,10.0,Calm,Calm,-,N/A,,Mostly Cloudy,0,2012-11-02 12:53:00
5:05 AM,-18.4,-23.8,76,30.03,10.0,Calm,Calm,-,N/A,,Overcast,0,2012-11-02 13:05:00
5:53 AM,-18.9,-25.1,74,30.11,10.0,Calm,Calm,-,N/A,,Overcast,0,2012-11-02 13:53:00
6:53 AM,-16.1,-20.9,79,30.08,10.0,Calm,Calm,-,N/A,,Overcast,0,2012-11-02 14:53:00
7:35 AM,-14.8,-20.2,77,29.98,10.0,Calm,Calm,-,N/A,,Overcast,0,2012-11-02 15:35:00
7:53 AM,-13.0,-18.9,75,30.06,10.0,Calm,Calm,-,N/A,,Overcast,0,2012-11-02 15:53:00
8:53 AM,-11.9,-17.0,78,30.04,10.0,Calm,Calm,-,N/A,,Overcast,0,2012-11-02 16:53:00
9:53 AM,-13.0,-18.0,78,30.02,10.0,Calm,Calm,-,N/A,,Mostly Cloudy,0,2012-11-02 17:53:00
10:11 AM,-11.2,-16.6,77,29.92,10.0,Calm,Calm,-,N/A,,Scattered Clouds,0,2012-11-02 18:11:00
10:24 AM,-9.4,-16.6,71,29.91,10.0,Calm,Calm,-,N/A,,Mostly Cloudy,0,2012-11-02 18:24:00
10:39 AM,-9.4,-14.8,77,29.91,10.0,Calm,Calm,-,N/A,,Scattered Clouds,0,2012-11-02 18:39:00
10:53 AM,-9.0,-14.1,79,30.00,10.0,Calm,Calm,-,N/A,,Mostly Cloudy,0,2012-11-02 18:53:00
11:53 AM,-6.0,-9.0,87,29.98,10.0,Calm,Calm,-,N/A,,Overcast,0,2012-11-02 19:53:00
12:22 PM,-4.0,-7.6,85,29.87,10.0,Calm,Calm,-,N/A,,Mostly Cloudy,0,2012-11-02 20:22:00
12:43 PM,-4.0,-7.6,85,29.86,10.0,Calm,Calm,-,N/A,,Mostly Cloudy,0,2012-11-02 20:43:00
12:53 PM,-4.0,-8.0,83,29.94,10.0,Calm,Calm,-,N/A,,Mostly Cloudy,0,2012-11-02 20:53:00
1:53 PM,-2.0,-6.0,83,29.91,10.0,Calm,Calm,-,N/A,,Overcast,0,2012-11-02 21:53:00
2:53 PM,-0.9,-7.1,75,29.89,10.0,North,3.5,-,N/A,,Overcast,10,2012-11-02 22:53:00
3:53 PM,-0.9,-6.0,79,29.86,10.0,Calm,Calm,-,N/A,,Overcast,0,2012-11-02 23:53:00
4:53 PM,-0.0,-6.0,76,29.85,10.0,NNE,3.5,-,N/A,,Overcast,30,2012-11-03 00:53:00
5:53 PM,1.0,-5.1,75,29.83,9.0,Calm,Calm,-,0.00,,Overcast,0,2012-11-03 01:53:00
6:50 PM,1.4,-5.8,72,29.74,2.5,North,3.5,-,0.00,Snow,Light Snow,360,2012-11-03 02:50:00
6:53 PM,1.0,-5.1,75,29.82,2.5,Calm,Calm,-,0.00,Snow,Light Snow,0,2012-11-03 02:53:00
7:39 PM,1.4,-4.0,78,29.73,3.0,Calm,Calm,-,0.00,Snow,Light Snow,0,2012-11-03 03:39:00
7:53 PM,1.9,-4.0,76,29.81,4.0,Calm,Calm,-,0.00,Snow,Light Snow,0,2012-11-03 03:53:00
8:53 PM,1.9,-4.0,76,29.81,8.0,Calm,Calm,-,0.00,,Overcast,0,2012-11-03 04:53:00
9:48 PM,1.4,-2.2,85,29.72,2.5,Calm,Calm,-,0.00,Snow,Light Snow,0,2012-11-03 05:48:00
9:53 PM,1.9,-2.9,80,29.81,2.5,Calm,Calm,-,0.00,Snow,Light Snow,0,2012-11-03 05:53:00
10:10 PM,1.4,-2.2,85,29.72,2.5,Calm,Calm,-,0.00,Snow,Light Snow,0,2012-11-03 06:10:00
10:29 PM,1.4,-2.2,85,29.72,1.5,Calm,Calm,-,0.00,Snow,Light Snow,0,2012-11-03 06:29:00
10:53 PM,1.9,-2.0,83,29.80,2.0,Calm,Calm,-,0.00,Snow,Light Snow,0,2012-11-03 06:53:00
11:05 PM,3.2,-2.2,78,29.72,2.5,Calm,Calm,-,0.00,Snow,Light Snow,0,2012-11-03 07:05:00
11:13 PM,3.2,-2.2,78,29.72,3.0,Calm,Calm,-,0.00,Snow,Light Snow,0,2012-11-03 07:13:00
11:23 PM,3.2,-2.2,78,29.72,2.5,Calm,Calm,-,0.00,Snow,Light Snow,0,2012-11-03 07:23:00
11:34 PM,3.2,-2.2,78,29.72,1.8,Calm,Calm,-,0.00,Snow,Light Snow,0,2012-11-03 07:34:00
11:53 PM,3.0,-2.9,76,29.80,1.8,Calm,Calm,-,0.01,Snow,Light Snow,0,2012-11-03 07:53:00